Погода в Барабинске

Погода в Барабинске : погода сейчас, прогноз погоды и архив. Всё, что Вы хотите узнать о погоде в Барабинске!

Хотите узнать прогноз погоды в Барабинске? Тогда Вам сюда: Погода в Барабинске

Поиск расширенной информации на нашем сайте:

Другие новости

Новости СМИ2

Главная страница сайта

Новости сайта

02.10.2013

Напоминаем, что на нашем новом сайте вы можете получить высокодетализированные прогнозы погоды по пунктам России, СНГ и мира (включающие важные для авиации метеовеличины, такие как направление и скорость ветра, видимость, явления погоды, количество и форма облачности, нижняя и верхняя граница облачности), а также ознакомиться с разнообразными материалами по авиационной метеорологии и подборкой полезных ссылок на эту тему.

Сайт Метеоцентр.Азия посвящён разработке технологий оптимизации авиаметеорологического обслуживания, включая проектирование и перспективное создание нескольких автоматизированных авиаметеорологических систем:
- система выпуска высокодетальных прогностических карт явлений погоды для нижнего воздушного пространства по России и ближнему зарубежью;
- система верификации прогнозов TAF (выпускаемых синоптиками официальных АМСГ РФ и ближнего зарубежья) и AUTOTAF (выпускаемых сайтом Метеоцентр.Азия) - выявление ошибок, онлайн-сопоставление с фактической погодой METAR, автоматическое внесение коррективов в прогнозы при резком отклонении фактической погоды от прогноза, подсчёт оправдываемости прогнозов по элементам и в целом;
- система обработки, анализа и отображения авиаметеорологической информации для применения провайдерами метеорологической информации.

Рекомендуем: Для клиентов Вешняков Компьютерная скорая помощь в тушино по филям.

Погода в Барабинске - сегодня

Время (UTC), дата Ветер
(°,м/с) 
Видим.   Явления Облачность Т
(°С)
Тd
(°С)
f(%) Тe
(°С)
Pmin
(гПа)
dP
(гПа)
Po
(мм)
O2
(г/м3)
Тmin Tmax R s Состояние
почвы
18 20.04.17 тихо ()   20000 м    ясно 
-0.3 -4.3 74 -0  1024.4  0.1  757  306           
21 20.04.17 тихо ()   20000 м    ясно 
-2.2 -4.1 87 -2  1024.9  0.5  757  308           
00 21.04.17 110 (В) 20000 м    3/0 верхняя 
[Ci fib]
-2.6 -5 84 -2  1025  0.1  757  309  -3         
03 21.04.17 110 (В) 20000 м    4/0 средняя 
[Ac trans]
+5.5 -4 50 +4  1024.2  -0.4  757  299           
06 21.04.17 120 (ЮВ) 20000 м    3/0 средняя 
[Ac trans]
+9.3 -4.5 37 +9  1023.8  -0.2  757  295           
09 21.04.17 130 (ЮВ) 20000 м    ясно 
+11.4 -3.6 35 +11  1021.7  -1.9  755  293           
12 21.04.17 100 (В) 20000 м    ясно 
+11.9 -4 33 +11  1019.6  -2.1  754  291    +12.3       
15 21.04.17 090 (В) 20000 м    ясно 
+8.2 -3.9 42 +8  1018.5  -1.3  753  295           
18 21.04.17 110 (В) 20000 м    ясно 
+5.6 -3.8 51 +4  1016.8  -1.8  752  297           
21 21.04.17 110 (В) 20000 м    ясно 
+4.1 -4.2 55 +3  1014.2  -2.7  749  298           
00 22.04.17 110 (В) 20000 м    4/0 верхняя 
[Ci fib]
+3.4 -5.2 53 +1  1012.2  -2  748  298  +3.1         
03 22.04.17 100 (В) 6{10}  20000 м    9/0 верхняя 
[Ci sp]
+8.2 -4.5 40 +6  1009.5  -2.4  746  292           
06 22.04.17 100 (В) 7-10{10}  20000 м    9/0 средняя, верхняя 
[Ac lent|Ci sp]
+15.3 -2.9 28 +15  1005.9  -3.1  744  284           
09 22.04.17 140 (ЮВ) 4{13}  20000 м    9/4 600 м кучево-дожд., средняя, верхняя 
[Cb calv|Ac trans|Ci fib]
+18.3 -1.5 26 +19  1004.1  -1.7  743  281           
12 22.04.17 270 (З) 20000 м    9/3 600 м кучево-дожд., средняя 
[Cb calv|Ac trans]
+17.7 +0.1 30 +18  1003.3  -0.8  742  281    +18.8       
15 22.04.17 280 (З) 4{11}  20000 м  слаб. ливневой дождь  10/10 600 м кучево-дожд. 
[Cb calv]
+7 +4.9 86 +6  1007.3  3.4  745  292           
18 22.04.17 290 (З) 4{10}  20000 м  {ливн. осадки}  10/10 600 м кучево-дожд. 
[Cb calv]
+5.9 +3.6 85 +4  1010.1  2.7  747  294           
21 22.04.17 300 (СЗ) 5{13}  20000 м    10/10 600 м кучево-дожд. 
[Cb calv]
+2.9 +0.3 83 1014.1  3.8  749  299           
00 23.04.17 290 (З) 20000 м    10/10 600 м кучево-дожд. 
[Cb calv]
+1.7 -1.9 77 1017.1  2.9  752  301  +1.2    0.6     
03 23.04.17 300 (СЗ) 20000 м    9/8 600 м кучево-дожд., средняя 
[Cb calv|Ac trans]
+2.2 -2.7 70 1019.6  2.5  753  301           
06 23.04.17 340 (С) 20000 м    6/0 верхняя 
[Ci]
+8.1 -3 45 +7  1019.3  753  295           
09 23.04.17 270 (З) 20000 м    6/0 верхняя 
[Ci]
+10.8 -3.4 37 +12  1018.3  -0.8  753  292           
12 23.04.17 150 (ЮВ) 20000 м    8/0 верхняя 
[Ci]
+9.9 -2.2 43 +10  1017.1  -1.3  752  293    +11.4       
15 23.04.17 110 (В) 20000 м    8/0 средняя 
[Ac lent]
+7.2 -1.8 53 +7  1015.3  -1.9  750  295           
18 23.04.17 120 (ЮВ) 20000 м    ясно 
+5.7 -1 62 +5  1013.4  -2  749  296           
Время (UTC), дата Ветер
(°,м/с) 
Видим.   Явления Облачность Т
(°С)
Тd
(°С)
f(%) Тe
(°С)
Pmin
(гПа)
dP
(гПа)
Po
(мм)
O2
(г/м3)
Тmin Tmax R s Состояние
почвы

Для получения пояснительной информации подведите курсор к названию столбца.

ПОГОДА в Барабинске - архив

Всё, что Вы хотите узнать о погоде в Барабинске - удобно и подробно!

Выберите нужную дату (начиная с 1 января 2015* года) и нажмите кнопку "Найти".
Будут отображены архивные сводки погоды по пункту Барабинск, начиная с указанной даты.


Отображать данные в формате CSV (для использования в таблицах Excel)


Внимание! Наш архив погоды предназначен исключительно для личного некоммерческого использования в познавательных целях. Если Вам необходимы официальные справки о состоянии погоды (для производственных, юридических, коммерческих и т.п. целей), обращайтесь в органы Росгидромета.

*Примечание: данная дата относится к архиву по метеостанциям СССР (Россия, СНГ, Балтия).
Архив по метеостанциям Зарубежной Европы и Азии (кроме Китая) хранится 10 дней, по другим регионам земного шара (Китай, Африка, Америка, Австралия, Океания) - 1 день.

Барабинск - район местоположения метеостанции


Название, широта, долгота, высота метеостанции:
Барабинск 55.3°ш. 78.4°д. 120 м над ур. моря [Российская Федерация]

Дополнительная информация

В oтличие oт бoльшинства пoгoдных сайтoв мы публикуем пoдрoбную метеoинфoрмацию в детальнoм прoфессиoнальнoм фoрмате.

Характеристики температуры и влажнoсти вoздуха измеряются на высoте 2 м в тени вдали oт зданий и деревьев.
Скoрoсть ветра измеряется на высoте 10 м (на урoвне рoста челoвека скoрoсть ветра ниже в 1.5-2 раза). Если метеoстанция нахoдится в гoрoде или в лесу, тo скoрoсть ветра занижена на 2-4 м/с пo сравнению с oткрытым местoм. Скoрoсть ветра над акватoриями крупных рек и oзёр, а также на вершинах хoлмoв на 2-5 м/с выше, чем в oбычных услoвиях.
Атмoсфернoе давление в разных тoчках местнoсти мoжет значительнo oтличаться oт давления на метеoстанции, в зависимoсти oт услoвий рельефа (при пoдъёме на 10 м давление пoнижается примернo на 1 мм рт.ст.).